When you browse on this site, cookies collect data to enhance your experience and personalize the content and advertising you see.
Visit our Privacy Policy to learn more. By continuing to use the site, you agree to this use of cookies and data.
  • In Sweden
  • List of Countries
  • For 7 days
  • Water Temperature
  • Satellite Maps
  • Weather Map
  • Weather Widgets
  • user-avatar
    Login

    Hourly Weather Baykan

    Today, 20 November, Tuesday

    Time Temperature Precipitation Wind Pressure Humidity
    00:00 +10°C° 0 mm 1 mps 689 mmHg 61%
    01:00 +8°C° 0 mm 0 mps 689 mmHg 61%
    02:00 +8°C° 0 mm 0 mps 689 mmHg 62%
    03:00 +9°C° 0 mm 1 mps 688 mmHg 61%
    04:00 +9°C° 0 mm 1 mps 688 mmHg 61%
    05:00 +9°C° 0 mm 1 mps 688 mmHg 61%
    06:00 +9°C° 0 mm 1 mps 689 mmHg 61%
    07:00 +9°C° 0 mm 0 mps 689 mmHg 56%
    08:00 +10°C° 0 mm 0 mps 689 mmHg 52%
    09:00 +13°C° 0 mm 1 mps 689 mmHg 48%
    10:00 +14°C° 0 mm 1 mps 689 mmHg 45%
    11:00 +15°C° 0 mm 1 mps 689 mmHg 43%
    12:00 +16°C° 0 mm 1 mps 689 mmHg 40%
    13:00 +16°C° 0 mm 1 mps 689 mmHg 39%
    14:00 +16°C° 0 mm 1 mps 688 mmHg 39%
    15:00 +16°C° 0 mm 2 mps 688 mmHg 38%
    16:00 +15°C° 0 mm 1 mps 688 mmHg 44%
    17:00 +13°C° 0 mm 1 mps 688 mmHg 50%
    18:00 +12°C° 0 mm 1 mps 688 mmHg 56%
    19:00 +12°C° 0 mm 1 mps 688 mmHg 57%
    20:00 +11°C° 0 mm 1 mps 688 mmHg 58%
    21:00 +10°C° 0 mm 0 mps 688 mmHg 59%
    22:00 +9°C° 0 mm 0 mps 687 mmHg 59%
    23:00 +9°C° 0 mm 0 mps 687 mmHg 59%

    Tomorrow, 21 November, Wednesday

    Time Temperature Precipitation Wind Pressure Humidity
    00:00 +9°C° 0 mm 0 mps 687 mmHg 59%
    01:00 +9°C° 0 mm 0 mps 687 mmHg 60%
    02:00 +8°C° 0 mm 0 mps 687 mmHg 60%
    03:00 +8°C° 0 mm 0 mps 687 mmHg 61%
    04:00 +8°C° 0 mm 0 mps 687 mmHg 61%
    05:00 +8°C° 0 mm 0 mps 687 mmHg 62%
    06:00 +8°C° 0 mm 0 mps 686 mmHg 62%
    07:00 +9°C° 0 mm 0 mps 687 mmHg 58%
    08:00 +10°C° 0 mm 0 mps 687 mmHg 54%
    09:00 +11°C° 0 mm 0 mps 687 mmHg 50%
    10:00 +13°C° 0 mm 1 mps 687 mmHg 48%
    11:00 +14°C° 0 mm 1 mps 687 mmHg 47%
    12:00 +15°C° 0 mm 2 mps 687 mmHg 45%
    13:00 +15°C° 0 mm 2 mps 686 mmHg 45%
    14:00 +15°C° 0 mm 2 mps 686 mmHg 46%
    15:00 +15°C° 0 mm 2 mps 686 mmHg 47%
    16:00 +14°C° 0 mm 2 mps 686 mmHg 51%
    17:00 +13°C° 0 mm 2 mps 686 mmHg 56%
    18:00 +12°C° 0 mm 2 mps 686 mmHg 60%
    19:00 +12°C° 0.1 mm 2 mps 686 mmHg 62%
    20:00 +12°C° 0.1 mm 2 mps 686 mmHg 63%
    21:00 +10°C° 0.1 mm 2 mps 686 mmHg 65%
    22:00 +10°C° 0.2 mm 2 mps 686 mmHg 67%
    23:00 +10°C° 0.2 mm 2 mps 686 mmHg 70%

    Day after tomorrow, 22 November, Thursday

    Time Temperature Precipitation Wind Pressure Humidity
    00:00 +10°C° 0.2 mm 2 mps 686 mmHg 72%
    01:00 +10°C° 0.3 mm 2 mps 686 mmHg 74%
    02:00 +9°C° 0.3 mm 2 mps 686 mmHg 76%
    03:00 +9°C° 0.3 mm 2 mps 685 mmHg 78%
    04:00 +9°C° 0.3 mm 2 mps 685 mmHg 78%
    05:00 +9°C° 0.3 mm 2 mps 685 mmHg 79%
    06:00 +9°C° 0.3 mm 2 mps 685 mmHg 80%
    07:00 +9°C° 0.3 mm 2 mps 685 mmHg 79%
    08:00 +9°C° 0.3 mm 2 mps 685 mmHg 78%
    09:00 +9°C° 0.3 mm 2 mps 685 mmHg 78%
    10:00 +10°C° 0.5 mm 2 mps 685 mmHg 77%
    11:00 +10°C° 0.5 mm 2 mps 685 mmHg 77%
    12:00 +10°C° 0.5 mm 2 mps 685 mmHg 77%
    13:00 +10°C° 0.8 mm 2 mps 684 mmHg 78%
    14:00 +10°C° 0.8 mm 2 mps 684 mmHg 80%
    15:00 +10°C° 0.8 mm 2 mps 684 mmHg 82%
    16:00 +10°C° 0.6 mm 2 mps 684 mmHg 83%
    17:00 +10°C° 0.6 mm 1 mps 684 mmHg 84%
    18:00 +10°C° 0.6 mm 1 mps 684 mmHg 86%
    19:00 +10°C° 0.7 mm 1 mps 684 mmHg 86%
    20:00 +10°C° 0.7 mm 1 mps 684 mmHg 87%
    21:00 +10°C° 0.7 mm 1 mps 685 mmHg 88%
    22:00 +10°C° 0.8 mm 1 mps 685 mmHg 88%
    23:00 +9°C° 0.8 mm 2 mps 685 mmHg 89%

    23 November, Friday

    Time Temperature Precipitation Wind Pressure Humidity
    00:00 +9°C° 0.8 mm 2 mps 685 mmHg 89%
    01:00 +9°C° 0.6 mm 2 mps 685 mmHg 89%
    02:00 +9°C° 0.6 mm 2 mps 685 mmHg 89%
    03:00 +9°C° 0.6 mm 2 mps 685 mmHg 90%
    04:00 +9°C° 0.3 mm 2 mps 685 mmHg 90%
    05:00 +9°C° 0.3 mm 2 mps 685 mmHg 91%
    06:00 +9°C° 0.3 mm 2 mps 685 mmHg 91%
    07:00 +9°C° 0.2 mm 2 mps 685 mmHg 88%
    08:00 +10°C° 0.2 mm 2 mps 686 mmHg 86%
    09:00 +10°C° 0.2 mm 2 mps 686 mmHg 83%
    10:00 +12°C° 0.1 mm 2 mps 686 mmHg 79%
    11:00 +12°C° 0.1 mm 2 mps 686 mmHg 74%
    12:00 +13°C° 0.1 mm 2 mps 685 mmHg 70%
    13:00 +13°C° 0.1 mm 2 mps 685 mmHg 68%
    14:00 +14°C° 0.1 mm 1 mps 685 mmHg 66%
    15:00 +14°C° 0.1 mm 1 mps 685 mmHg 64%
    16:00 +13°C° 0.1 mm 1 mps 685 mmHg 68%
    17:00 +13°C° 0.1 mm 1 mps 685 mmHg 73%
    18:00 +11°C° 0.1 mm 0 mps 685 mmHg 77%
    19:00 +10°C° 0 mm 0 mps 685 mmHg 78%
    20:00 +10°C° 0 mm 0 mps 686 mmHg 79%
    21:00 +10°C° 0 mm 0 mps 686 mmHg 80%
    22:00 +9°C° 0 mm 0 mps 686 mmHg 80%
    23:00 +9°C° 0 mm 0 mps 686 mmHg 80%

    24 November, Saturday

    Time Temperature Precipitation Wind Pressure Humidity
    00:00 +10°C° 0 mm 1 mps 686 mmHg 80%
    01:00 +10°C° 0 mm 1 mps 686 mmHg 80%
    02:00 +10°C° 0 mm 1 mps 687 mmHg 80%
    03:00 +9°C° 0 mm 1 mps 687 mmHg 80%
    04:00 +9°C° 0 mm 1 mps 687 mmHg 79%
    05:00 +9°C° 0 mm 1 mps 687 mmHg 79%
    06:00 +9°C° 0 mm 1 mps 687 mmHg 79%
    07:00 +10°C° 0 mm 1 mps 688 mmHg 75%
    08:00 +10°C° 0 mm 1 mps 688 mmHg 72%
    09:00 +11°C° 0 mm 1 mps 689 mmHg 69%
    10:00 +12°C° 0 mm 1 mps 689 mmHg 64%
    11:00 +13°C° 0 mm 1 mps 689 mmHg 59%
    12:00 +14°C° 0 mm 1 mps 688 mmHg 54%
    13:00 +15°C° 0 mm 1 mps 688 mmHg 53%
    14:00 +15°C° 0 mm 1 mps 688 mmHg 51%
    15:00 +15°C° 0 mm 1 mps 688 mmHg 49%
    16:00 +14°C° 0 mm 1 mps 688 mmHg 54%
    17:00 +13°C° 0 mm 1 mps 688 mmHg 58%
    18:00 +12°C° 0 mm 1 mps 688 mmHg 62%
    19:00 +12°C° 0 mm 1 mps 688 mmHg 63%
    20:00 +12°C° 0 mm 1 mps 689 mmHg 63%
    21:00 +11°C° 0 mm 1 mps 689 mmHg 63%
    22:00 +10°C° 0 mm 2 mps 689 mmHg 64%
    23:00 +10°C° 0 mm 2 mps 689 mmHg 65%

    25 November, Sunday

    Time Temperature Precipitation Wind Pressure Humidity
    00:00 +9°C° 0 mm 2 mps 689 mmHg 65%
    01:00 +9°C° 0 mm 2 mps 688 mmHg 66%
    02:00 +9°C° 0 mm 2 mps 688 mmHg 67%
    03:00 +8°C° 0 mm 2 mps 688 mmHg 68%
    04:00 +8°C° 0 mm 2 mps 688 mmHg 68%
    05:00 +8°C° 0 mm 2 mps 687 mmHg 69%
    06:00 +8°C° 0 mm 2 mps 687 mmHg 70%
    07:00 +9°C° 0 mm 2 mps 687 mmHg 68%
    08:00 +9°C° 0 mm 2 mps 687 mmHg 65%
    09:00 +10°C° 0 mm 2 mps 688 mmHg 63%
    10:00 +12°C° 0 mm 2 mps 687 mmHg 59%
    11:00 +13°C° 0 mm 1 mps 687 mmHg 54%
    12:00 +14°C° 0 mm 1 mps 686 mmHg 49%
    13:00 +14°C° 0 mm 1 mps 686 mmHg 48%
    14:00 +15°C° 0 mm 1 mps 686 mmHg 47%
    15:00 +15°C° 0 mm 1 mps 685 mmHg 46%
    16:00 +14°C° 0 mm 1 mps 685 mmHg 52%
    17:00 +13°C° 0 mm 1 mps 685 mmHg 57%
    18:00 +12°C° 0 mm 1 mps 685 mmHg 63%
    19:00 +11°C° 0 mm 1 mps 686 mmHg 64%
    20:00 +10°C° 0 mm 0 mps 686 mmHg 66%
    21:00 +9°C° 0 mm 0 mps 686 mmHg 68%
    22:00 +9°C° 0 mm 0 mps 686 mmHg 70%
    23:00 +9°C° 0 mm 0 mps 686 mmHg 71%
    Show more